FW7227 Weather Reports


time (UTC)temp
C
wind
direction
speed
KPH
gust
KPH
rain 1hr
cm
rain 24hr
cm
rain mn
cm
humidity
%
barometer
mb
20260507093557 7 0 4.8 14.5 0.03 0.66 0.25 92 1014.3
20260507093056 7 360 4.8 14.5 0.03 0.66 0.25 92 1014.2
20260507092558 7 360 4.8 14.5 0.03 0.66 0.25 91 1014.2
20260507092057 7 360 4.8 14.5 0.03 0.66 0.25 91 1014.1
20260507091558 7 360 6.4 14.5 0.03 0.66 0.25 91 1014.0
20260507091059 7 360 8.0 14.5 0.00 0.64 0.23 91 1014.0
20260507090558 7 360 3.2 9.7 0.00 0.64 0.23 92 1013.9
20260507085557 7 360 3.2 16.1 0.00 0.66 0.23 92 1013.8
20260507085057 7 360 8.0 16.1 0.00 0.64 0.20 92 1013.7
20260507084557 7 360 8.0 14.5 0.00 0.64 0.20 92 1013.7
20260507084057 7 360 6.4 14.5 0.00 0.64 0.20 92 1013.7
20260507083600 7 360 8.0 14.5 0.00 0.64 0.20 92 1013.6
20260507083058 7 360 3.2 19.3 0.00 0.64 0.20 92 1013.6
20260507082559 7 360 6.4 19.3 0.00 0.64 0.20 92 1013.6
20260507082056 7 360 9.7 19.3 0.00 0.64 0.20 92 1013.5
20260507081557 7 360 4.8 17.7 0.00 0.64 0.20 93 1013.5
20260507081101 7 360 6.4 16.1 0.00 0.64 0.20 93 1013.4
20260507080559 7 360 4.8 16.1 0.00 0.64 0.20 93 1013.4
20260507080120 7 360 4.8 19.3 0.00 0.64 0.20 94 1013.3
20260507075559 7 360 11.3 19.3 0.00 0.74 0.20 94 1013.3
20260507075057 7 360 8.0 14.5 0.00 0.74 0.20 94 1013.2
20260507074557 7 360 4.8 14.5 0.00 0.74 0.20 94 1013.2
20260507074057 7 360 8.0 17.7 0.00 0.74 0.20 94 1013.1
20260507073601 7 360 4.8 17.7 0.00 0.74 0.20 94 1013.0
20260507073057 7 360 4.8 17.7 0.00 0.74 0.20 94 1012.9
20260507072559 7 360 4.8 16.1 0.00 0.74 0.20 94 1012.9
20260507072057 7 360 6.4 20.9 0.00 0.74 0.20 94 1012.8
20260507071604 6 360 6.4 20.9 0.00 0.74 0.20 94 1012.8
20260507071057 7 360 11.3 19.3 0.00 0.74 0.20 94 1012.7
20260507070558 7 360 6.4 17.7 0.00 0.74 0.20 94 1012.6
20260507070103 7 360 8.0 17.7 0.00 0.74 0.20 94 1012.7
20260507065601 7 360 3.2 17.7 0.00 0.97 0.20 95 1012.6
20260507065057 7 360 6.4 19.3 0.00 0.97 0.20 95 1012.6
20260507064631 7 360 4.8 19.3 0.00 0.97 0.20 95 1012.5
20260507064101 7 360 8.0 16.1 0.00 0.97 0.20 95 1012.5
20260507063558 7 360 8.0 16.1 0.00 0.97 0.20 95 1012.4
20260507063117 7 360 4.8 17.7 0.00 0.97 0.20 95 1012.4
20260507062557 7 360 8.0 17.7 0.00 0.97 0.20 95 1012.3
20260507062057 7 360 8.0 16.1 0.00 0.97 0.20 95 1012.3
20260507061556 7 360 6.4 12.9 0.00 0.97 0.20 95 1012.2
20260507061056 7 360 3.2 17.7 0.00 0.97 0.20 95 1012.2
20260507060558 7 360 6.4 17.7 0.00 0.97 0.20 95 1012.1
20260507060111 7 360 6.4 17.7 0.00 0.97 0.20 95 1012.1
20260507055557 7 360 8.0 17.7 0.00 1.22 0.20 95 1012.0
20260507055056 7 360 6.4 19.3 0.00 1.22 0.20 95 1011.9
20260507054607 7 360 6.4 19.3 0.00 1.22 0.20 95 1011.8
20260507054058 6 360 4.8 14.5 0.00 1.22 0.20 95 1011.7
20260507053557 6 0 1.6 14.5 0.00 1.22 0.20 95 1011.6
20260507053106 6 360 4.8 16.1 0.00 1.22 0.20 95 1011.5
20260507052557 6 0 8.0 16.1 0.00 1.22 0.20 95 1011.5
20260507052057 6 360 3.2 16.1 0.00 1.22 0.20 95 1011.3
20260507051607 6 360 8.0 20.9 0.00 1.22 0.20 95 1011.3
20260507051056 6 360 6.4 20.9 0.00 1.22 0.20 95 1011.3
20260507050557 6 360 4.8 19.3 0.00 1.22 0.20 95 1011.2
20260507050057 6 360 9.7 20.9 0.00 1.22 0.20 95 1011.2
20260507045557 6 360 9.7 20.9 0.00 1.42 0.20 95 1011.1
20260507045057 6 360 8.0 20.9 0.00 1.42 0.20 95 1011.2
20260507044600 6 360 8.0 20.9 0.00 1.42 0.20 94 1011.2
20260507044056 6 360 9.7 19.3 0.00 1.42 0.20 94 1011.1
20260507043556 6 360 9.7 19.3 0.00 1.42 0.20 94 1011.0
20260507043058 6 360 6.4 17.7 0.00 1.42 0.20 94 1010.9
20260507042559 6 360 8.0 22.5 0.00 1.42 0.20 94 1010.8
20260507042056 6 360 8.0 22.5 0.00 1.42 0.20 94 1010.8
20260507041559 7 360 9.7 20.9 0.00 1.42 0.20 94 1010.8
20260507041057 7 360 8.0 19.3 0.00 1.42 0.20 94 1010.7
20260507040558 7 360 9.7 17.7 0.03 1.42 0.20 94 1010.7
20260507040057 7 360 4.8 22.5 0.03 1.42 0.20 94 1010.7
20260507035557 7 360 8.0 22.5 0.03 1.68 0.20 94 1010.7
20260507035058 7 360 6.4 19.3 0.03 1.68 0.20 94 1010.7
20260507034557 7 360 8.0 19.3 0.00 1.68 0.18 94 1010.7
20260507034056 7 360 4.8 16.1 0.03 1.68 0.18 94 1010.6
20260507033557 7 360 6.4 22.5 0.03 1.68 0.18 94 1010.6
20260507033057 7 360 11.3 22.5 0.03 1.68 0.18 94 1010.6
20260507032558 7 360 11.3 20.9 0.03 1.68 0.18 94 1010.6
20260507032056 7 360 9.7 24.1 0.03 1.68 0.18 94 1010.6
20260507031555 7 360 14.5 27.4 0.03 1.68 0.18 94 1010.4
20260507031057 7 360 8.0 27.4 0.03 1.68 0.18 94 1010.5
20260507030556 7 360 14.5 27.4 0.00 1.65 0.18 94 1010.4
20260507030055 7 360 8.0 19.3 0.00 1.65 0.18 94 1010.3
20260507025556 7 360 9.7 19.3 0.00 2.08 0.18 94 1010.3
20260507025057 7 360 8.0 19.3 0.03 2.08 0.18 94 1010.2
20260507024556 7 360 8.0 19.3 0.03 2.08 0.18 94 1010.2
20260507024058 7 360 6.4 17.7 0.03 2.06 0.15 95 1010.2
20260507023557 8 360 6.4 20.9 0.03 2.06 0.15 95 1010.2
20260507023057 8 360 4.8 20.9 0.05 2.06 0.15 95 1010.1
20260507022557 8 360 9.7 19.3 0.05 2.06 0.15 95 1010.1
20260507022057 8 360 11.3 19.3 0.05 2.06 0.15 94 1010.0
20260507021555 8 360 8.0 16.1 0.05 2.06 0.15 94 1010.0
20260507021057 8 360 6.4 16.1 0.05 2.06 0.15 94 1009.9
20260507020557 8 360 4.8 20.9 0.05 2.06 0.15 94 1009.9
20260507020111 8 360 6.4 20.9 0.05 2.06 0.15 94 1009.7
20260507015556 8 360 6.4 19.3 0.05 2.34 0.15 94 1009.6
20260507015053 8 360 4.8 19.3 0.03 2.31 0.13 95 1009.7
20260507014601 8 360 8.0 19.3 0.05 2.31 0.13 95 1009.6
20260507014100 8 360 8.0 19.3 0.03 2.29 0.10 95 1009.6
20260507013557 8 360 6.4 19.3 0.03 2.29 0.10 95 1009.5
20260507013057 8 360 8.0 17.7 0.00 2.26 0.08 95 1009.4
20260507012559 8 360 6.4 17.7 0.00 2.26 0.08 95 1009.3
20260507012057 8 360 8.0 24.1 0.00 2.26 0.08 95 1009.2
20260507011557 8 360 11.3 24.1 0.00 2.26 0.08 95 1009.2
20260507011058 8 360 4.8 14.5 0.00 2.26 0.08 95 1009.2
20260507010558 8 360 4.8 16.1 0.00 2.26 0.08 95 1009.2
20260507010110 8 360 4.8 17.7 0.00 2.26 0.08 95 1009.2
20260507005557 8 360 4.8 17.7 0.00 2.49 0.08 94 1009.2
20260507005057 8 360 6.4 17.7 0.00 2.49 0.08 94 1009.1
20260507004556 8 0 4.8 17.7 0.00 2.46 0.08 94 1009.0
20260507004057 8 360 8.0 20.9 0.00 2.46 0.08 94 1009.1
20260507003557 8 360 6.4 20.9 0.00 2.46 0.08 94 1009.1
20260507003058 8 360 6.4 17.7 0.00 2.46 0.08 94 1008.9
20260507002557 8 360 6.4 17.7 0.00 2.46 0.08 94 1008.9
20260507002057 8 360 8.0 22.5 0.00 2.46 0.08 94 1008.9
20260507001603 8 360 11.3 22.5 0.00 2.46 0.08 95 1008.8
20260507001059 8 360 8.0 17.7 0.00 2.46 0.08 95 1008.8
20260507000559 8 360 3.2 14.5 0.00 2.46 0.08 95 1008.9
20260507000056 8 360 4.8 17.7 0.00 2.46 0.08 95 1008.8
20260506235557 8 360 4.8 19.3 0.00 2.64 0.08 95 1008.9
20260506235057 8 360 8.0 22.5 0.00 2.64 0.08 95 1008.8
20260506234600 8 360 6.4 22.5 0.00 2.64 0.08 94 1008.8
20260506234057 8 360 11.3 22.5 0.00 2.64 0.08 94 1008.7
20260506233557 8 360 6.4 17.7 0.00 2.64 0.08 94 1008.7
20260506233100 8 360 6.4 16.1 0.03 2.64 0.08 94 1008.7
20260506232600 8 360 4.8 22.5 0.03 2.64 0.08 94 1008.8
20260506232057 8 360 9.7 22.5 0.03 2.64 0.08 94 1008.7
20260506231609 8 360 6.4 17.7 0.05 2.64 0.08 94 1008.6
20260506231057 8 360 8.0 16.1 0.05 2.64 0.08 94 1008.7
20260506230556 8 360 3.2 22.5 0.05 2.64 0.08 94 1008.6
20260506230111 8 360 8.0 22.5 0.05 2.64 0.08 94 1008.6
20260506225556 8 360 8.0 20.9 0.05 2.62 0.05 94 1008.5
20260506225056 8 360 6.4 20.9 0.08 2.62 0.05 94 1008.5
20260506224557 9 360 6.4 19.3 0.08 2.62 0.05 94 1008.5
20260506224056 9 360 8.0 19.3 0.08 2.62 0.05 94 1008.5
20260506223556 9 360 4.8 20.9 0.10 2.62 0.05 94 1008.5
20260506223056 9 360 8.0 20.9 0.13 2.62 0.03 94 1008.4
20260506222557 9 360 11.3 20.9 0.15 2.62 0.03 94 1008.4
20260506222057 9 360 6.4 17.7 0.15 2.62 0.03 94 1008.3
20260506221617 9 360 4.8 16.1 0.15 2.59 0.00 94 1008.4
20260506221056 9 360 6.4 17.7 0.15 2.59 0.00 94 1008.3
20260506220557 9 360 8.0 17.7 0.15 2.59 0.00 94 1008.3
20260506220122 9 360 8.0 19.3 0.15 2.59 0.00 94 1008.2
20260506215556 9 360 8.0 19.3 0.13 2.57 2.57 94 1008.1
20260506215056 9 360 6.4 16.1 0.10 2.54 2.54 94 1008.2
20260506214557 10 360 8.0 16.1 0.10 2.54 2.54 94 1008.2
20260506214056 10 360 9.7 20.9 0.08 2.54 2.54 94 1008.2
20260506213557 10 360 6.4 22.5 0.08 2.51 2.51 94 1008.2
20260506213110 10 360 8.0 22.5 0.03 2.46 2.46 94 1008.2
20260506212556 10 360 11.3 19.3 0.00 2.44 2.44 94 1008.1
20260506212059 10 360 6.4 16.1 0.00 2.44 2.44 94 1008.0
20260506211600 10 360 3.2 14.5 0.00 2.44 2.44 94 1008.0
20260506211057 10 360 6.4 17.7 0.00 2.44 2.44 94 1007.9
20260506210557 10 360 6.4 17.7 0.00 2.44 2.44 94 1007.9
20260506210105 10 360 1.6 16.1 0.00 2.44 2.44 94 1007.8
20260506205559 10 360 6.4 16.1 0.00 2.44 2.44 94 1007.8
20260506205058 10 360 4.8 19.3 0.00 2.44 2.44 94 1007.8
20260506204607 10 360 3.2 19.3 0.00 2.44 2.44 94 1007.8
20260506204057 10 360 8.0 19.3 0.00 2.44 2.44 94 1007.7
20260506203557 10 360 8.0 22.5 0.00 2.44 2.44 94 1007.6
20260506203104 10 360 11.3 22.5 0.00 2.44 2.44 94 1007.6
20260506202557 10 360 9.7 22.5 0.00 2.44 2.44 94 1007.6
20260506202058 10 360 9.7 22.5 0.00 2.44 2.44 94 1007.6
20260506201557 10 360 6.4 22.5 0.00 2.44 2.44 94 1007.5
20260506201057 10 360 8.0 22.5 0.00 2.44 2.44 94 1007.5
20260506200558 10 360 9.7 19.3 0.00 2.44 2.44 94 1007.4
20260506200059 10 360 6.4 16.1 0.00 2.44 2.44 94 1007.4
20260506195557 10 360 4.8 19.3 0.00 2.44 2.44 94 1007.4
20260506195057 10 360 8.0 19.3 0.00 2.44 2.44 94 1007.4
20260506194556 10 360 6.4 16.1 0.00 2.44 2.44 94 1007.3
20260506194058 10 360 8.0 16.1 0.00 2.44 2.44 94 1007.3
20260506193558 10 360 6.4 14.5 0.00 2.44 2.44 94 1007.3
20260506193059 10 360 6.4 17.7 0.00 2.44 2.44 94 1007.3
20260506192559 10 360 6.4 17.7 0.00 2.44 2.44 94 1007.2
20260506192058 10 360 4.8 16.1 0.03 2.44 2.44 94 1007.2
20260506191617 10 360 8.0 17.7 0.03 2.44 2.44 94 1007.1
20260506191058 10 360 9.7 20.9 0.03 2.44 2.44 94 1007.0
20260506190558 10 360 6.4 22.5 0.03 2.44 2.44 94 1007.0
20260506190058 10 360 9.7 22.5 0.03 2.44 2.44 94 1007.0
20260506185557 10 360 9.7 19.3 0.03 2.44 2.44 94 1006.9
20260506185057 10 360 6.4 16.1 0.03 2.44 2.44 94 1006.8
20260506184622 10 360 8.0 17.7 0.03 2.44 2.44 94 1006.9
20260506184058 10 360 9.7 17.7 0.03 2.44 2.44 94 1006.8
20260506183601 11 360 8.0 17.7 0.03 2.44 2.44 94 1006.7
20260506183104 11 360 8.0 17.7 0.00 2.41 2.41 94 1006.5
20260506182558 11 360 6.4 16.1 0.00 2.41 2.41 94 1006.5
20260506182057 11 360 6.4 14.5 0.00 2.39 2.39 94 1006.6
20260506181559 11 360 8.0 14.5 0.00 2.39 2.39 94 1006.6
20260506181057 11 360 6.4 16.1 0.00 2.39 2.39 94 1006.6
20260506180558 11 360 8.0 16.1 0.00 2.39 2.39 94 1006.6
20260506180058 11 360 4.8 16.1 0.00 2.39 2.39 94 1006.5
20260506175557 11 360 4.8 16.1 0.00 2.39 2.39 94 1006.6
20260506175058 11 360 6.4 19.3 0.00 2.39 2.39 94 1006.5
20260506174558 11 360 4.8 19.3 0.00 2.39 2.39 94 1006.5
20260506174057 11 360 6.4 16.1 0.00 2.39 2.39 94 1006.5
20260506173558 11 360 4.8 14.5 0.00 2.39 2.39 94 1006.5
20260506173056 11 360 4.8 14.5 0.00 2.39 2.39 94 1006.4
20260506172557 11 360 6.4 14.5 0.00 2.39 2.39 94 1006.4
20260506172058 11 360 6.4 14.5 0.00 2.39 2.39 94 1006.4
20260506171607 11 360 6.4 14.5 0.00 2.39 2.39 94 1006.4
20260506171058 11 360 6.4 14.5 0.00 2.39 2.39 94 1006.4
20260506170558 11 360 3.2 12.9 0.00 2.39 2.39 94 1006.4
20260506170059 11 360 6.4 12.9 0.00 2.39 2.39 94 1006.4
20260506165557 11 360 6.4 12.9 0.00 2.39 2.39 94 1006.4
20260506165058 11 360 3.2 9.7 0.00 2.39 2.39 94 1006.4
20260506164558 11 0 4.8 12.9 0.00 2.39 2.39 94 1006.4
20260506164058 11 360 1.6 12.9 0.00 2.39 2.39 94 1006.4
20260506163557 11 360 3.2 12.9 0.00 2.39 2.39 94 1006.4
20260506163107 11 360 3.2 12.9 0.03 2.39 2.39 94 1006.3
20260506162559 11 0 1.6 12.9 0.03 2.39 2.39 94 1006.2
20260506162100 11 360 4.8 12.9 0.05 2.39 2.39 94 1006.3
20260506161557 11 360 1.6 8.0 0.05 2.39 2.39 94 1006.2
20260506161057 11 360 3.2 8.0 0.05 2.39 2.39 94 1006.2
20260506160558 11 360 1.6 9.7 0.05 2.39 2.39 94 1006.3
20260506160108 11 360 3.2 16.1 0.05 2.39 2.39 94 1006.3
20260506155557 11 360 4.8 16.1 0.08 2.39 2.39 94 1006.4
20260506155057 11 360 4.8 16.1 0.08 2.39 2.39 94 1006.2
20260506154558 11 360 6.4 17.7 0.10 2.39 2.39 94 1006.2
20260506154100 10 0 8.0 25.7 0.08 2.36 2.36 94 1006.2
20260506153558 10 360 8.0 25.7 0.08 2.36 2.36 94 1006.3
20260506153059 10 360 6.4 17.7 0.08 2.34 2.34 94 1006.2
20260506152557 10 360 8.0 17.7 0.08 2.34 2.34 94 1006.3
20260506152057 10 360 8.0 17.7 0.05 2.34 2.34 94 1006.4
20260506151558 10 360 6.4 16.1 0.08 2.34 2.34 94 1006.4
20260506151057 10 360 6.4 16.1 0.08 2.34 2.34 93 1006.4
20260506150557 10 360 6.4 16.1 0.08 2.34 2.34 93 1006.5
20260506150056 11 360 8.0 16.1 0.08 2.34 2.34 94 1006.4
20260506145557 11 360 6.4 16.1 0.08 2.31 2.31 94 1006.3
20260506145057 10 360 8.0 16.1 0.08 2.29 2.29 94 1006.3
20260506144603 10 360 8.0 17.7 0.08 2.26 2.26 94 1006.3
20260506144058 10 360 8.0 17.7 0.08 2.26 2.26 94 1006.4
20260506143558 10 360 8.0 16.1 0.08 2.26 2.26 93 1006.4
20260506143057 10 360 9.7 16.1 0.08 2.26 2.26 94 1006.3
20260506142558 10 360 3.2 14.5 0.08 2.26 2.26 94 1006.4
20260506142059 10 360 4.8 14.5 0.08 2.26 2.26 94 1006.4
20260506141557 10 360 6.4 14.5 0.05 2.24 2.24 94 1006.4
20260506141057 10 360 4.8 19.3 0.05 2.24 2.24 94 1006.4
20260506140557 10 360 6.4 19.3 0.03 2.24 2.24 93 1006.4
20260506140059 10 360 8.0 19.3 0.00 2.21 2.21 93 1006.5
20260506135557 10 360 6.4 16.1 0.00 2.21 2.21 93 1006.5
20260506135057 10 360 4.8 14.5 0.00 2.18 2.18 93 1006.5
20260506134557 10 360 3.2 12.9 0.00 2.18 2.18 93 1006.5
20260506134058 10 360 4.8 12.9 0.00 2.18 2.18 93 1006.5
20260506133558 10 360 3.2 16.1 0.00 2.18 2.18 93 1006.6
20260506133056 10 360 4.8 16.1 0.00 2.18 2.18 93 1006.5
20260506132557 10 360 6.4 14.5 0.00 2.18 2.18 93 1006.4
20260506132059 10 360 4.8 12.9 0.00 2.18 2.18 93 1006.5
20260506131607 10 360 4.8 14.5 0.00 2.18 2.18 93 1006.5
20260506131100 10 360 4.8 14.5 0.00 2.18 2.18 93 1006.5
20260506130558 10 360 6.4 14.5 0.00 2.18 2.18 93 1006.4
20260506130057 10 360 6.4 14.5 0.00 2.18 2.18 93 1006.5
20260506125557 10 360 4.8 16.1 0.00 2.18 2.18 93 1006.5
20260506125058 10 360 6.4 17.7 0.00 2.18 2.18 93 1006.4
20260506124557 10 360 9.7 17.7 0.00 2.18 2.18 93 1006.4
20260506124057 10 360 8.0 17.7 0.00 2.18 2.18 94 1006.4
20260506123557 10 360 4.8 16.1 0.00 2.18 2.18 94 1006.4
20260506123055 10 360 8.0 17.7 0.00 2.18 2.18 94 1006.4
20260506122557 10 360 9.7 17.7 0.00 2.18 2.18 94 1006.3
20260506122057 10 360 8.0 17.7 0.00 2.16 2.16 94 1006.4
20260506121558 10 360 6.4 14.5 0.00 2.16 2.16 94 1006.4
20260506121057 10 360 6.4 14.5 0.00 2.16 2.16 94 1006.4
20260506120602 10 360 3.2 12.9 0.00 2.16 2.16 94 1006.4
20260506115558 10 360 8.0 19.3 0.00 2.16 2.16 93 1006.3
20260506115058 10 360 4.8 19.3 0.00 2.16 2.16 93 1006.2
20260506114559 10 360 6.4 19.3 0.00 2.16 2.16 94 1006.2
20260506114058 10 360 4.8 16.1 0.00 2.16 2.16 94 1006.2
20260506113557 10 360 8.0 19.3 0.00 2.16 2.16 94 1006.2
20260506113057 10 360 6.4 19.3 0.00 2.16 2.16 93 1006.3
20260506112558 10 360 8.0 17.7 0.00 2.16 2.16 94 1006.3
20260506112057 10 360 6.4 14.5 0.00 2.16 2.16 93 1006.3
20260506111602 10 360 4.8 19.3 0.00 2.16 2.16 93 1006.3
20260506111100 10 360 8.0 19.3 0.00 2.16 2.16 93 1006.4
20260506110557 10 360 11.3 19.3 0.00 2.16 2.16 93 1006.4
20260506110057 10 360 9.7 19.3 0.00 2.16 2.16 93 1006.3
20260506105557 10 360 8.0 17.7 0.00 2.16 2.16 93 1006.2
20260506105100 10 360 8.0 20.9 0.00 2.16 2.16 94 1006.2
20260506104604 10 360 9.7 22.5 0.00 2.16 2.16 94 1006.3
20260506104101 10 360 8.0 22.5 0.00 2.16 2.16 94 1006.2
20260506103557 10 360 11.3 19.3 0.00 2.16 2.16 94 1006.2
20260506103055 9 360 6.4 17.7 0.00 2.16 2.16 94 1006.2
20260506102601 9 360 6.4 17.7 0.00 2.16 2.16 94 1006.3
20260506102058 9 360 6.4 14.5 0.00 2.16 2.16 94 1006.2
20260506101601 9 360 4.8 12.9 0.00 2.16 2.16 94 1006.2
20260506101057 9 360 3.2 14.5 0.00 2.16 2.16 94 1006.2
20260506100557 9 360 6.4 14.5 0.00 2.16 2.16 94 1006.2
20260506100109 9 360 8.0 16.1 0.00 2.16 2.16 94 1006.2
20260506095559 9 360 6.4 16.1 0.00 2.16 2.16 94 1006.2
20260506095101 9 360 8.0 19.3 0.00 2.16 2.16 94 1006.2
20260506094556 9 360 8.0 19.3 0.00 2.16 2.16 94 1006.1
20260506094057 9 360 9.7 19.3 0.00 2.16 2.16 94 1006.2